User: anonymous
Location: Unspecified
(0.0000°N, 0.0000°E)
Time: 12:19:49
(UTC+02:00)
Language:

Ariane 42L R/B - Orbit

View from above orbital plane
View from above orbital plane
View from above satellite
View from above satellite

Ground track
Ground track

The orbit data is extracted from the following two-line orbital elements,

1 26299U 00020B   14208.33351279  .00001231  00000-0  43337-3 0   146
2 26299 007.4723 115.8296 6054263 272.2425 307.5501 03.92950910176402
Epoch (UTC): 27 July 2014 08:00:15
Eccentricity: 0.6054263
inclination: 7.4723°
perigee height: 315 km
apogee height: 20855 km
right ascension of ascending node: 115.8296°
argument of perigee: 272.2425°
revolutions per day: 3.92950910
mean anomaly at epoch: 307.5501°
orbit number at epoch: 17640

The dashed part of the orbit path shows where the satellite is in the earth's shadow,  

DLR